Location: Austin, TX
(30.3000°N, 97.7500°W)
Time: 10:23:16
(UTC-05:00)

Cosmos 1666 - Visible Passes

Search period start: 07 July 2015 00:00
Search period end: 17 July 2015 00:00
Orbit: 507 x 534 km, 82.5° (Epoch: 06 July)

Date Brightness Start Highest point End Pass type
(mag) Time Alt. Az. Time Alt. Az. Time Alt. Az.
07 Jul 3.2 05:45:03 11° SSW 05:48:25 40° W 05:52:00 10° N visible
08 Jul 2.9 05:32:12 17° SSW 05:34:54 49° W 05:38:35 10° N visible
09 Jul 2.7 05:19:19 24° SSW 05:21:23 60° W 05:25:08 10° N visible
10 Jul 2.5 05:06:23 34° SSW 05:07:53 74° W 05:11:41 10° N visible
11 Jul 2.5 04:53:25 49° S 04:54:22 90° S 04:58:11 10° N visible
12 Jul 2.7 04:40:24 64° SSE 04:40:51 74° E 04:44:39 10° N visible
13 Jul 3.0 04:27:22 60° E 04:27:22 60° E 04:31:06 10° NNE visible
14 Jul 3.6 04:14:18 46° ENE 04:14:18 46° ENE 04:17:31 10° NNE visible
15 Jul 4.2 04:01:12 34° ENE 04:01:12 34° ENE 04:03:55 10° NNE visible
16 Jul 4.8 03:48:04 26° NE 03:48:04 26° NE 03:50:16 10° NNE visible
